Simultaneous Nadir Overpasses (SNOs) Predictions

Prediction of SNOs between GOES-17 and NOAA-19 Satellite Orbit:

Table of predicted SNOs for the next 14.0 days since TLE Epoch: 1/8/2022
Index Date Time (GOES-17) GOES-17 Lat,Lon NOAA-19 Lat,Lon Distance(km) Time Diff (sec)
1 01/08/2022 04:42:08 0.01,-137.21 0.00,-139.11 211.54 80
2 01/09/2022 04:27:34 0.01,-137.21 0.24,-136.14 121.65 80
3 01/10/2022 04:15:47 0.02,-137.20 0.95,-133.27 449.48 80
4 01/11/2022 16:51:00 -0.02,-137.20 0.86,-141.06 439.81 80
5 01/12/2022 16:36:32 -0.02,-137.20 0.21,-138.18 112.41 80
6 01/13/2022 16:27:25 -0.02,-137.19 -0.44,-135.30 214.88 80
7 01/16/2022 04:45:28 0.01,-137.14 -0.70,-140.20 349.07 80
8 01/17/2022 04:33:40 0.00,-137.13 -0.05,-137.32 22.31 80
9 01/18/2022 04:24:33 -0.00,-137.11 0.60,-134.44 304.29 80
10 01/20/2022 16:42:38 0.00,-137.07 0.52,-139.35 260.62 80
11 01/21/2022 16:33:30 0.00,-137.05 -0.14,-136.48 65.65 80
